Location: Coed Ely
(51.5661°N, 3.4150°W)
Time: 19:53:31
(UTC+00:00)

Cosmos 2278 Rocket - Pass Details

Date: 28 January 2021
Orbit: 840 x 847 km, 71.0° (Epoch: 27 February)

Event Time Altitude Azimuth Distance (km) Brightness Sun altitude
Rises 18:05:06 0° 179° (S) 3,390 5.5 -10.7°
Reaches altitude 10° 18:07:43 10° 170° (S) 2,461 4.7 -11.1°
Maximum altitude 18:12:46 35° 107° (ESE) 1,351 2.8 -11.9°
Enters shadow 18:17:18 13° 46° (NE) 2,300 4.0 -12.6°
